Flag for U.S.A. Weather past 2 weeks in Livonia, Michigan, U.S.A.

Now
60 °F

Broken clouds.


Feels Like: 60 °F
Forecast: 45 / 59 °F
Wind: 7 mph from West

Location: Detroit Metropolitan Wayne County Airport


UV Index: 3 (Moderate)

Visibility: 10 mi


Pressure: 30.28 "Hg

Humidity: 53%

Dew point: 43 °F

Location of LivoniaLocation

Historic Weather in Livonia

°F

Livonia temperature yesterday

Maximum temperature yesterday: 63 °F (at 4:53 PM)
Minimum temperature yesterday: 33 °F (at 12:53 AM)
Average temperature yesterday: 48 °F

Past Weeks' High & Low Weather Summary

 TemperatureHumidityPressure
High78 °F (Apr 13, 3:53 PM)100% (Apr 4, 7:53 AM)30.49 "Hg (Apr 4, 7:53 AM)
Low23 °F (Apr 16, 6:53 AM)17% (Apr 11, 3:53 PM)29.44 "Hg (Apr 14, 6:53 AM)
Average47 °F59%29.95 "Hg
* Reported Apr 3 12:53 PM — Apr 18 12:53 PM, Livonia, Weather by CustomWeather, © 2014

Note: Actual official high and low records may vary slightly from our data, if they occured in-between our weather recording intervals... More about our weather records

Advertising

Historic Weather Conditions — Data for Previous 24 hours

 ConditionsComfort  
Time TempWeatherWind HumidityBarometerVisibility
12:53 PM
Apr 18
60 °FBroken clouds.7 mph53%30.28 "Hg10 mi
11:53 AM57 °FMostly cloudy.No wind58%30.27 "Hg10 mi
10:53 AM55 °FMostly cloudy.No wind59%30.28 "Hg10 mi
9:53 AM53 °FMostly cloudy.No wind64%30.28 "Hg9 mi
8:53 AM51 °FMostly cloudy.No wind69%30.29 "Hg10 mi
7:53 AM51 °FMostly cloudy.No wind61%30.29 "Hg10 mi
6:53 AM50 °FOvercast.No wind63%30.28 "Hg10 mi
5:53 AM47 °FMostly cloudy.No wind71%30.25 "Hg10 mi
4:53 AM49 °FMostly cloudy.No wind69%30.23 "Hg8 mi
3:53 AM49 °FOvercast.No wind71%30.24 "Hg10 mi
2:53 AM50 °FOvercast.No wind66%30.23 "Hg10 mi
1:53 AM49 °FMostly cloudy.No wind74%30.24 "Hg10 mi
12:53 AM50 °FPassing clouds.No wind66%30.25 "Hg10 mi
11:53 PM
Apr 17
51 °FPassing clouds.3 mph63%30.26 "Hg10 mi
10:53 PM52 °FPassing clouds.No wind61%30.27 "Hg10 mi
9:53 PM53 °FPartly cloudy.5 mph56%30.27 "Hg10 mi
8:53 PM55 °FBroken clouds.3 mph49%30.25 "Hg10 mi
7:53 PM59 °FPartly sunny.6 mph42%30.24 "Hg10 mi
6:53 PM61 °FPartly sunny.10 mph36%30.24 "Hg10 mi
5:53 PM63 °FPartly sunny.8 mph33%30.25 "Hg10 mi
4:53 PM63 °FPartly sunny.9 mph33%30.26 "Hg10 mi
3:53 PM62 °FPartly sunny.8 mph34%30.27 "Hg10 mi
2:53 PM60 °FPartly sunny.15 mph35%30.29 "Hg10 mi
Weather by CustomWeather, © 2014

See weather overview